カタログに戻る

STARLINK-35156

運用中通信SSO
NORAD 65607·PAYLOAD·🇺🇸 United States

打ち上げ Sep 13, 2025 から Cape Canaveral Space Force Station

Loading…

次のパス (今後24時間)

TLE

最新Source: CelesTrak SupGP

元期: Sep 15, 2026, 03:26 UTC

1 65607C 25207R   26258.14354167  .00019950  00000+0  12128-2 0  2581
2 65607  97.2849 320.8812 0001124  74.7595 356.3401 15.10543026    14

AllMySatでSTARLINK-35156をリアルタイム追跡

Download on the App Store